軌道要素
Epoch 2022 Dec. 7.0 TT = JDT 2459920.5
T 2022 Dec. 19.67089 TT Rudenko
q 1.7969659 (2000.0) P Q
z -0.0004760 Peri. 236.19659 +0.01818389 +0.04923156
+/-0.0000005 Node 88.23544 -0.18095817 +0.98245436
e 1.0008553 Incl. 87.56306 -0.98332268 -0.17988797
From 3281 observations 2013 May 12-2020 Oct. 16, mean residual 0".4.
|